QPF
0.01 0.01 0.00 0.00 0.00 0.00 0.00 0.00 0.00 0.01 0.00 0.01 0.01 0.03 0.03 0.02 0.01 0.01 0.03 0.04 0.05 0.06 0.09 0.10 0.08 0.10 0.11 0.10 0.09 0.11 0.07 0.07 0.08 0.07 0.06 0.08 0.10 0.10 0.09 0.09 0.08 0.07 0.06
0.00 0.00 0.00 0.00 0.00 0.00 0.00 0.00 0.00 0.01 0.00 0.00 0.01 0.02 0.03 0.03 0.04 0.03 0.04 0.05 0.06 0.06 0.08 0.09 0.09 0.10 0.09 0.09 0.10 0.12 0.09 0.07 0.06 0.06 0.10 0.12 0.15 0.14 0.11 0.09 0.08 0.08 0.08
0.00 0.00 0.00 0.00 0.00 0.00 0.00 0.00 0.00 0.00 0.00 0.01 0.01 0.02 0.04 0.04 0.04 0.04 0.03 0.04 0.07 0.06 0.06 0.06 0.07 0.09 0.08 0.08 0.10 0.10 0.08 0.07 0.06 0.07 0.09 0.08 0.13 0.14 0.10 0.08 0.08 0.08 0.08
0.00 0.00 0.00 0.00 0.00 0.00 0.00 0.01 0.01 0.00 0.01 0.01 0.01 0.02 0.03 0.02 0.03 0.04 0.03 0.04 0.07 0.07 0.06 0.07 0.05 0.07 0.07 0.06 0.07 0.09 0.08 0.07 0.07 0.06 0.04 0.04 0.07 0.09 0.08 0.07 0.07 0.07 0.07
0.00 0.00 0.00 0.00 0.00 0.00 0.00 0.00 0.00 0.00 0.01 0.01 0.02 0.02 0.02 0.01 0.01 0.02 0.03 0.03 0.05 0.06 0.05 0.05 0.05 0.05 0.05 0.06 0.09 0.10 0.08 0.06 0.07 0.06 0.04 0.04 0.06 0.09 0.07 0.06 0.05 0.05 0.05
0.00 0.00 0.00 0.00 0.00 0.00 0.00 0.00 0.00 0.00 0.02 0.04 0.04 0.02 0.01 0.01 0.01 0.01 0.03 0.04 0.03 0.03 0.02 0.03 0.04 0.05 0.05 0.07 0.09 0.09 0.07 0.07 0.07 0.06 0.07 0.07 0.08 0.08 0.07 0.06 0.04 0.04 0.04
0.00 0.00 0.00 0.00 0.00 0.00 0.00 0.00 0.00 0.00 0.01 0.03 0.02 0.01 0.01 0.01 0.01 0.01 0.01 0.03 0.03 0.03 0.02 0.02 0.03 0.05 0.06 0.07 0.07 0.06 0.06 0.06 0.05 0.06 0.09 0.07 0.08 0.09 0.07 0.06 0.05 0.04 0.04
0.00 0.00 0.00 0.00 0.00 0.00 0.00 0.01 0.00 0.00 0.00 0.01 0.01 0.01 0.01 0.01 0.01 0.02 0.02 0.02 0.02 0.02 0.01 0.01 0.02 0.04 0.06 0.06 0.05 0.05 0.05 0.05 0.06 0.07 0.07 0.08 0.10 0.09 0.07 0.06 0.06 0.05 0.04
0.00 0.00 0.00 0.00 0.00 0.00 0.01 0.01 0.00 0.00 0.00 0.01 0.01 0.01 0.01 0.01 0.02 0.03 0.03 0.02 0.02 0.02 0.01 0.01 0.02 0.04 0.05 0.05 0.05 0.05 0.05 0.06 0.07 0.06 0.06 0.08 0.10 0.12 0.09 0.07 0.07 0.08 0.07
0.00 0.00 0.00 0.00 0.00 0.00 0.00 0.01 0.01 0.01 0.01 0.01 0.02 0.01 0.01 0.01 0.02 0.03 0.02 0.03 0.03 0.03 0.03 0.03 0.03 0.05 0.05 0.05 0.04 0.04 0.05 0.07 0.09 0.08 0.05 0.06 0.10 0.14 0.13 0.09 0.07 0.08 0.07
0.00 0.00 0.00 0.00 0.00 0.00 0.00 0.01 0.01 0.01 0.01 0.01 0.02 0.02 0.01 0.01 0.01 0.02 0.02 0.04 0.04 0.05 0.06 0.05 0.05 0.06 0.04 0.04 0.05 0.06 0.05 0.04 0.07 0.07 0.05 0.06 0.08 0.10 0.13 0.13 0.09 0.08 0.08
0.01 0.01 0.00 0.00 0.00 0.00 0.00 0.00 0.01 0.01 0.01 0.01 0.01 0.01 0.01 0.01 0.01 0.01 0.04 0.05 0.05 0.06 0.08 0.07 0.08 0.06 0.04 0.04 0.05 0.05 0.04 0.03 0.05 0.06 0.05 0.05 0.05 0.06 0.08 0.09 0.08 0.08 0.10
0.01 0.00 0.00 0.00 0.00 0.00 0.00 0.00 0.00 0.01 0.02 0.01 0.01 0.01 0.00 0.01 0.01 0.01 0.02 0.05 0.06 0.08 0.08 0.07 0.10 0.09 0.05 0.03 0.02 0.02 0.02 0.03 0.03 0.04 0.04 0.05 0.05 0.05 0.05 0.05 0.05 0.06 0.06
0.00 0.00 0.01 0.00 0.00 0.01 0.00 0.00 0.00 0.00 0.01 0.01 0.01 0.00 0.00 0.01 0.01 0.01 0.01 0.04 0.06 0.06 0.04 0.04 0.06 0.07 0.05 0.03 0.03 0.02 0.02 0.02 0.02 0.02 0.03 0.06 0.06 0.05 0.05 0.05 0.05 0.05 0.04
0.01 0.01 0.01 0.00 0.00 0.00 0.00 0.00 0.00 0.00 0.01 0.01 0.01 0.01 0.02 0.01 0.01 0.01 0.01 0.02 0.03 0.02 0.01 0.03 0.07 0.07 0.04 0.06 0.05 0.04 0.02 0.02 0.03 0.02 0.02 0.06 0.06 0.05 0.05 0.05 0.05 0.05 0.04
0.02 0.02 0.02 0.01 0.00 0.00 0.00 0.00 0.00 0.00 0.01 0.02 0.01 0.01 0.01 0.02 0.01 0.01 0.01 0.02 0.03 0.02 0.02 0.03 0.04 0.04 0.04 0.05 0.04 0.05 0.05 0.05 0.05 0.04 0.04 0.06 0.06 0.05 0.05 0.05 0.06 0.06 0.05
0.02 0.04 0.04 0.02 0.01 0.01 0.00 0.01 0.01 0.01 0.01 0.02 0.03 0.01 0.01 0.03 0.03 0.03 0.02 0.02 0.03 0.02 0.03 0.05 0.05 0.05 0.06 0.04 0.04 0.04 0.05 0.07 0.07 0.08 0.09 0.08 0.06 0.07 0.06 0.05 0.06 0.06 0.06
0.06 0.06 0.05 0.03 0.01 0.01 0.01 0.01 0.01 0.01 0.01 0.03 0.04 0.03 0.03 0.03 0.04 0.04 0.03 0.03 0.03 0.03 0.05 0.05 0.05 0.07 0.07 0.05 0.07 0.07 0.07 0.06 0.07 0.08 0.11 0.12 0.09 0.12 0.10 0.08 0.08 0.07 0.05
0.12 0.11 0.08 0.04 0.02 0.01 0.01 0.01 0.02 0.01 0.02 0.03 0.04 0.04 0.03 0.03 0.05 0.07 0.05 0.03 0.03 0.03 0.05 0.05 0.05 0.05 0.04 0.06 0.10 0.10 0.08 0.05 0.05 0.06 0.06 0.07 0.07 0.07 0.08 0.10 0.10 0.06 0.05
0.06 0.07 0.05 0.04 0.02 0.01 0.01 0.01 0.02 0.02 0.04 0.04 0.05 0.07 0.06 0.04 0.04 0.06 0.07 0.05 0.04 0.03 0.04 0.04 0.05 0.03 0.03 0.05 0.07 0.11 0.09 0.05 0.05 0.04 0.04 0.04 0.06 0.08 0.09 0.10 0.07 0.06 0.06
0.03 0.03 0.02 0.02 0.03 0.02 0.02 0.02 0.01 0.01 0.02 0.03 0.04 0.06 0.07 0.05 0.03 0.04 0.05 0.05 0.04 0.03 0.03 0.03 0.04 0.04 0.04 0.04 0.06 0.08 0.07 0.07 0.06 0.06 0.06 0.06 0.07 0.09 0.10 0.09 0.07 0.06 0.05
0.03 0.03 0.03 0.03 0.03 0.02 0.01 0.02 0.02 0.02 0.02 0.02 0.02 0.03 0.04 0.04 0.03 0.03 0.02 0.03 0.04 0.04 0.03 0.03 0.04 0.05 0.06 0.05 0.05 0.06 0.06 0.06 0.06 0.08 0.09 0.09 0.08 0.07 0.06 0.06 0.05 0.06 0.04
0.02 0.03 0.03 0.03 0.03 0.02 0.01 0.02 0.02 0.02 0.03 0.03 0.03 0.03 0.03 0.04 0.03 0.03 0.03 0.04 0.04 0.04 0.05 0.05 0.05 0.05 0.06 0.06 0.06 0.05 0.04 0.05 0.05 0.05 0.09 0.12 0.12 0.08 0.06 0.07 0.05 0.04 0.03
0.03 0.02 0.02 0.02 0.02 0.01 0.01 0.01 0.02 0.03 0.02 0.02 0.03 0.03 0.02 0.02 0.02 0.02 0.03 0.05 0.06 0.06 0.06 0.06 0.06 0.06 0.06 0.06 0.05 0.04 0.04 0.05 0.06 0.04 0.04 0.06 0.11 0.09 0.08 0.07 0.05 0.04 0.03
0.04 0.03 0.03 0.03 0.02 0.02 0.01 0.02 0.02 0.02 0.02 0.02 0.03 0.04 0.02 0.01 0.01 0.01 0.02 0.03 0.04 0.03 0.03 0.05 0.06 0.06 0.04 0.03 0.03 0.04 0.05 0.06 0.05 0.04 0.04 0.04 0.06 0.07 0.07 0.08 0.08 0.06 0.05
0.04 0.03 0.04 0.03 0.02 0.02 0.01 0.01 0.01 0.02 0.02 0.02 0.02 0.02 0.02 0.01 0.01 0.01 0.02 0.02 0.02 0.02 0.02 0.03 0.04 0.03 0.02 0.01 0.02 0.03 0.04 0.06 0.05 0.04 0.04 0.05 0.04 0.03 0.04 0.05 0.08 0.11 0.09
MSLP
1008.51 1007.78 1007.15 1006.71 1006.49 1006.44 1006.49 1006.54 1006.50 1006.33 1006.04 1005.69 1005.36 1005.12 1005.05 1005.16 1005.42 1005.80 1006.24 1006.69 1007.11 1007.50 1007.89 1008.30 1008.76 1009.26 1009.80 1010.35 1010.87 1011.33 1011.73 1012.05 1012.32 1012.56 1012.80 1013.05 1013.31 1013.58 1013.83 1014.06 1014.26 1014.45 1014.65
1008.32 1007.66 1007.10 1006.72 1006.54 1006.52 1006.58 1006.63 1006.59 1006.44 1006.20 1005.91 1005.65 1005.50 1005.50 1005.66 1005.95 1006.32 1006.73 1007.13 1007.51 1007.87 1008.23 1008.61 1009.05 1009.52 1010.03 1010.52 1010.98 1011.38 1011.71 1011.98 1012.23 1012.48 1012.75 1013.04 1013.36 1013.67 1013.96 1014.21 1014.42 1014.60 1014.79
1007.99 1007.43 1006.97 1006.68 1006.57 1006.59 1006.67 1006.73 1006.70 1006.58 1006.37 1006.14 1005.97 1005.89 1005.95 1006.15 1006.46 1006.82 1007.20 1007.56 1007.89 1008.21 1008.54 1008.91 1009.32 1009.77 1010.23 1010.67 1011.06 1011.39 1011.67 1011.91 1012.14 1012.40 1012.71 1013.06 1013.44 1013.81 1014.15 1014.43 1014.65 1014.84 1015.02
1007.57 1007.14 1006.80 1006.62 1006.60 1006.67 1006.78 1006.84 1006.82 1006.71 1006.54 1006.36 1006.24 1006.23 1006.35 1006.59 1006.91 1007.26 1007.61 1007.94 1008.24 1008.53 1008.85 1009.20 1009.60 1010.03 1010.46 1010.85 1011.19 1011.47 1011.69 1011.90 1012.13 1012.41 1012.76 1013.16 1013.60 1014.03 1014.41 1014.73 1014.97 1015.16 1015.34
1007.17 1006.87 1006.68 1006.62 1006.68 1006.80 1006.93 1006.99 1006.96 1006.84 1006.67 1006.52 1006.45 1006.49 1006.65 1006.92 1007.26 1007.61 1007.95 1008.26 1008.55 1008.83 1009.15 1009.51 1009.90 1010.33 1010.74 1011.11 1011.41 1011.64 1011.83 1012.02 1012.25 1012.54 1012.92 1013.37 1013.86 1014.33 1014.75 1015.09 1015.35 1015.55 1015.72
1006.86 1006.70 1006.65 1006.70 1006.84 1007.00 1007.13 1007.16 1007.10 1006.95 1006.77 1006.63 1006.57 1006.65 1006.85 1007.14 1007.50 1007.86 1008.20 1008.51 1008.80 1009.10 1009.43 1009.81 1010.23 1010.66 1011.08 1011.44 1011.72 1011.94 1012.12 1012.29 1012.52 1012.82 1013.22 1013.69 1014.20 1014.69 1015.13 1015.48 1015.75 1015.95 1016.12
1006.69 1006.67 1006.74 1006.89 1007.09 1007.27 1007.37 1007.37 1007.24 1007.04 1006.83 1006.67 1006.63 1006.72 1006.94 1007.27 1007.64 1008.02 1008.37 1008.69 1009.00 1009.33 1009.69 1010.10 1010.55 1011.01 1011.44 1011.81 1012.10 1012.32 1012.50 1012.68 1012.90 1013.21 1013.61 1014.08 1014.58 1015.08 1015.51 1015.86 1016.13 1016.32 1016.50
1006.67 1006.76 1006.93 1007.16 1007.40 1007.58 1007.64 1007.57 1007.38 1007.13 1006.87 1006.69 1006.64 1006.74 1006.98 1007.32 1007.71 1008.10 1008.47 1008.81 1009.14 1009.48 1009.88 1010.32 1010.81 1011.30 1011.77 1012.17 1012.48 1012.72 1012.92 1013.10 1013.33 1013.64 1014.02 1014.47 1014.96 1015.42 1015.84 1016.17 1016.43 1016.63 1016.80
1006.76 1006.92 1007.16 1007.44 1007.70 1007.86 1007.88 1007.76 1007.51 1007.20 1006.91 1006.71 1006.65 1006.75 1007.00 1007.34 1007.73 1008.13 1008.50 1008.85 1009.19 1009.56 1009.98 1010.46 1010.97 1011.50 1012.00 1012.44 1012.79 1013.06 1013.28 1013.49 1013.72 1014.01 1014.38 1014.80 1015.25 1015.69 1016.08 1016.39 1016.64 1016.84 1017.02
1006.88 1007.09 1007.38 1007.68 1007.94 1008.08 1008.07 1007.90 1007.62 1007.28 1006.97 1006.76 1006.70 1006.80 1007.04 1007.37 1007.75 1008.13 1008.50 1008.84 1009.19 1009.57 1010.01 1010.50 1011.04 1011.60 1012.13 1012.59 1012.98 1013.28 1013.53 1013.75 1013.99 1014.28 1014.63 1015.02 1015.44 1015.85 1016.21 1016.52 1016.77 1016.98 1017.17
1006.99 1007.22 1007.52 1007.82 1008.07 1008.19 1008.16 1007.98 1007.69 1007.36 1007.06 1006.87 1006.81 1006.91 1007.13 1007.44 1007.79 1008.15 1008.49 1008.82 1009.16 1009.54 1009.98 1010.49 1011.04 1011.61 1012.15 1012.64 1013.05 1013.37 1013.64 1013.88 1014.13 1014.41 1014.74 1015.11 1015.51 1015.90 1016.26 1016.58 1016.85 1017.08 1017.31
1007.08 1007.29 1007.58 1007.86 1008.09 1008.20 1008.17 1008.01 1007.75 1007.46 1007.21 1007.05 1007.01 1007.10 1007.30 1007.57 1007.88 1008.19 1008.50 1008.81 1009.15 1009.53 1009.97 1010.48 1011.03 1011.59 1012.14 1012.63 1013.04 1013.37 1013.65 1013.90 1014.14 1014.42 1014.74 1015.10 1015.49 1015.88 1016.26 1016.60 1016.91 1017.19 1017.45
1007.17 1007.35 1007.58 1007.83 1008.02 1008.12 1008.11 1008.00 1007.81 1007.60 1007.41 1007.30 1007.29 1007.37 1007.54 1007.77 1008.02 1008.29 1008.56 1008.86 1009.19 1009.58 1010.02 1010.53 1011.08 1011.63 1012.16 1012.63 1013.02 1013.35 1013.61 1013.85 1014.09 1014.36 1014.67 1015.03 1015.43 1015.84 1016.25 1016.64 1017.00 1017.34 1017.65
1007.34 1007.45 1007.61 1007.78 1007.93 1008.03 1008.04 1007.99 1007.89 1007.77 1007.68 1007.63 1007.64 1007.72 1007.85 1008.02 1008.21 1008.44 1008.68 1008.97 1009.31 1009.72 1010.19 1010.71 1011.25 1011.79 1012.29 1012.72 1013.08 1013.37 1013.60 1013.82 1014.04 1014.30 1014.61 1014.97 1015.38 1015.82 1016.28 1016.72 1017.15 1017.54 1017.90
1007.67 1007.67 1007.72 1007.80 1007.89 1007.96 1008.00 1008.01 1008.01 1008.00 1008.00 1008.01 1008.04 1008.11 1008.19 1008.30 1008.44 1008.62 1008.85 1009.15 1009.52 1009.96 1010.47 1011.01 1011.56 1012.08 1012.55 1012.94 1013.25 1013.49 1013.69 1013.87 1014.07 1014.31 1014.62 1014.98 1015.41 1015.88 1016.37 1016.87 1017.34 1017.78 1018.18
1008.21 1008.07 1007.99 1007.95 1007.94 1007.97 1008.02 1008.09 1008.18 1008.26 1008.35 1008.41 1008.47 1008.51 1008.55 1008.60 1008.69 1008.83 1009.06 1009.38 1009.79 1010.28 1010.83 1011.41 1011.97 1012.49 1012.93 1013.28 1013.54 1013.74 1013.90 1014.06 1014.23 1014.46 1014.75 1015.12 1015.55 1016.04 1016.55 1017.07 1017.58 1018.04 1018.46
1008.96 1008.67 1008.42 1008.23 1008.11 1008.07 1008.12 1008.23 1008.38 1008.55 1008.70 1008.82 1008.88 1008.90 1008.90 1008.89 1008.93 1009.05 1009.27 1009.62 1010.08 1010.63 1011.23 1011.84 1012.43 1012.94 1013.37 1013.69 1013.93 1014.10 1014.24 1014.38 1014.54 1014.76 1015.05 1015.40 1015.82 1016.29 1016.80 1017.31 1017.82 1018.28 1018.69
1009.87 1009.41 1008.98 1008.63 1008.37 1008.25 1008.26 1008.39 1008.59 1008.82 1009.04 1009.19 1009.27 1009.27 1009.22 1009.17 1009.17 1009.26 1009.49 1009.85 1010.35 1010.95 1011.60 1012.24 1012.85 1013.37 1013.79 1014.11 1014.35 1014.52 1014.67 1014.81 1014.99 1015.21 1015.49 1015.82 1016.21 1016.64 1017.10 1017.58 1018.04 1018.47 1018.84
1010.88 1010.24 1009.63 1009.09 1008.69 1008.47 1008.42 1008.54 1008.78 1009.06 1009.32 1009.51 1009.60 1009.59 1009.52 1009.44 1009.40 1009.48 1009.70 1010.08 1010.60 1011.22 1011.89 1012.56 1013.18 1013.71 1014.14 1014.48 1014.74 1014.95 1015.13 1015.32 1015.53 1015.77 1016.04 1016.35 1016.70 1017.06 1017.45 1017.84 1018.22 1018.58 1018.90
1011.88 1011.08 1010.28 1009.57 1009.01 1008.68 1008.57 1008.66 1008.91 1009.22 1009.53 1009.76 1009.87 1009.87 1009.80 1009.70 1009.65 1009.72 1009.93 1010.31 1010.82 1011.44 1012.11 1012.77 1013.39 1013.93 1014.37 1014.74 1015.06 1015.33 1015.59 1015.85 1016.12 1016.39 1016.67 1016.95 1017.24 1017.52 1017.80 1018.08 1018.36 1018.63 1018.88
1012.80 1011.85 1010.89 1010.01 1009.31 1008.86 1008.68 1008.73 1008.98 1009.31 1009.65 1009.92 1010.07 1010.10 1010.05 1009.97 1009.93 1009.99 1010.20 1010.56 1011.05 1011.64 1012.27 1012.90 1013.50 1014.02 1014.49 1014.90 1015.27 1015.63 1015.99 1016.34 1016.69 1017.01 1017.31 1017.56 1017.78 1017.97 1018.13 1018.29 1018.45 1018.61 1018.78
1013.61 1012.54 1011.43 1010.42 1009.59 1009.02 1008.75 1008.76 1008.97 1009.31 1009.68 1009.99 1010.19 1010.28 1010.27 1010.24 1010.23 1010.31 1010.51 1010.85 1011.30 1011.84 1012.41 1012.99 1013.53 1014.04 1014.51 1014.95 1015.39 1015.84 1016.30 1016.75 1017.18 1017.57 1017.88 1018.11 1018.27 1018.36 1018.40 1018.44 1018.47 1018.54 1018.63
1014.32 1013.15 1011.94 1010.81 1009.86 1009.19 1008.83 1008.76 1008.93 1009.25 1009.62 1009.96 1010.21 1010.36 1010.43 1010.46 1010.51 1010.63 1010.85 1011.17 1011.58 1012.06 1012.56 1013.07 1013.55 1014.01 1014.47 1014.93 1015.42 1015.94 1016.49 1017.03 1017.54 1017.98 1018.31 1018.53 1018.63 1018.64 1018.58 1018.51 1018.44 1018.41 1018.44
1014.95 1013.74 1012.45 1011.23 1010.19 1009.41 1008.94 1008.78 1008.87 1009.13 1009.48 1009.83 1010.12 1010.34 1010.48 1010.60 1010.73 1010.91 1011.16 1011.49 1011.88 1012.30 1012.73 1013.16 1013.57 1013.97 1014.39 1014.85 1015.37 1015.93 1016.53 1017.14 1017.71 1018.18 1018.54 1018.74 1018.81 1018.77 1018.64 1018.48 1018.34 1018.24 1018.22
1015.58 1014.34 1013.02 1011.74 1010.61 1009.73 1009.15 1008.86 1008.84 1009.00 1009.28 1009.60 1009.90 1010.16 1010.39 1010.60 1010.82 1011.07 1011.38 1011.74 1012.13 1012.52 1012.90 1013.26 1013.60 1013.94 1014.31 1014.74 1015.23 1015.80 1016.42 1017.06 1017.65 1018.15 1018.52 1018.73 1018.79 1018.72 1018.56 1018.36 1018.17 1018.04 1017.99
1016.21 1014.99 1013.66 1012.35 1011.16 1010.18 1009.46 1009.03 1008.85 1008.88 1009.05 1009.29 1009.56 1009.84 1010.12 1010.40 1010.72 1011.07 1011.46 1011.86 1012.28 1012.66 1013.02 1013.33 1013.61 1013.89 1014.20 1014.57 1015.03 1015.56 1016.16 1016.78 1017.37 1017.88 1018.26 1018.49 1018.56 1018.50 1018.35 1018.15 1017.96 1017.83 1017.78
Thickness
5788 5790 5789 5789 5788 5787 5786 5785 5784 5783 5782 5781 5780 5779 5778 5777 5777 5776 5775 5774 5773 5772 5771 5771 5770 5769 5768 5767 5766 5765 5764 5764 5763 5763 5763 5762 5761 5761 5760 5758 5757 5756 5755
5794 5792 5790 5789 5788 5787 5786 5784 5783 5782 5781 5780 5779 5778 5777 5776 5775 5774 5773 5773 5772 5771 5769 5769 5768 5767 5766 5765 5764 5763 5762 5762 5761 5761 5760 5760 5759 5759 5758 5757 5755 5754 5753
5796 5793 5791 5789 5788 5786 5785 5783 5782 5781 5780 5779 5778 5777 5775 5774 5773 5772 5771 5771 5771 5770 5768 5767 5766 5765 5764 5763 5762 5762 5761 5760 5759 5759 5758 5757 5756 5756 5756 5755 5753 5752 5751
5797 5794 5791 5789 5787 5786 5784 5782 5781 5780 5778 5777 5776 5775 5774 5773 5771 5770 5769 5769 5770 5769 5767 5766 5764 5764 5763 5762 5761 5760 5759 5759 5758 5757 5756 5755 5754 5754 5753 5752 5751 5750 5749
5797 5794 5791 5789 5787 5785 5783 5782 5780 5778 5777 5776 5775 5774 5772 5771 5770 5769 5768 5768 5767 5766 5765 5765 5763 5762 5761 5760 5760 5759 5758 5757 5756 5755 5754 5753 5753 5752 5751 5750 5749 5748 5748
5796 5793 5791 5789 5787 5784 5782 5780 5779 5777 5776 5774 5773 5772 5771 5770 5768 5767 5767 5766 5766 5765 5764 5763 5762 5761 5760 5759 5758 5757 5756 5755 5754 5753 5752 5751 5751 5750 5749 5748 5748 5747 5746
5795 5793 5791 5788 5786 5784 5781 5779 5777 5776 5774 5773 5771 5770 5769 5768 5767 5766 5765 5764 5764 5763 5763 5762 5761 5760 5759 5758 5757 5756 5755 5753 5752 5750 5750 5749 5748 5748 5747 5746 5745 5745 5744
5797 5793 5790 5787 5785 5783 5781 5779 5777 5775 5773 5772 5770 5769 5768 5766 5765 5765 5764 5763 5762 5761 5761 5760 5759 5758 5757 5756 5756 5755 5753 5752 5750 5749 5748 5747 5746 5746 5745 5744 5743 5743 5742
5797 5793 5789 5786 5784 5782 5780 5778 5775 5774 5772 5770 5769 5768 5766 5765 5764 5763 5762 5761 5760 5760 5759 5758 5758 5757 5756 5755 5754 5753 5752 5750 5749 5747 5746 5745 5745 5744 5744 5743 5742 5741 5740
5794 5791 5788 5785 5783 5781 5779 5776 5774 5772 5771 5769 5768 5766 5765 5764 5762 5762 5761 5760 5759 5758 5757 5757 5756 5756 5755 5754 5753 5752 5750 5749 5747 5746 5745 5744 5744 5743 5743 5742 5740 5739 5739
5790 5788 5786 5784 5781 5780 5777 5775 5773 5771 5769 5768 5766 5765 5763 5762 5761 5760 5759 5759 5758 5757 5756 5756 5755 5754 5753 5752 5751 5750 5748 5747 5746 5745 5743 5743 5742 5742 5741 5740 5739 5738 5737
5786 5786 5785 5783 5781 5779 5777 5775 5772 5770 5768 5766 5764 5763 5762 5761 5760 5759 5758 5757 5756 5756 5755 5754 5753 5752 5752 5750 5749 5748 5746 5745 5744 5743 5742 5742 5741 5741 5740 5739 5737 5736 5736
5789 5787 5785 5783 5781 5778 5777 5774 5771 5769 5767 5766 5764 5762 5761 5759 5758 5757 5756 5755 5754 5754 5753 5752 5751 5751 5749 5748 5747 5745 5744 5743 5742 5741 5741 5740 5740 5740 5739 5738 5737 5736 5735
5789 5788 5786 5784 5781 5779 5777 5774 5771 5769 5766 5765 5764 5762 5760 5758 5756 5756 5755 5754 5752 5751 5750 5750 5749 5749 5747 5746 5745 5744 5742 5741 5740 5740 5740 5739 5739 5739 5738 5737 5736 5736 5735
5789 5788 5786 5785 5782 5779 5776 5774 5771 5769 5766 5764 5763 5761 5759 5757 5756 5754 5753 5752 5751 5750 5749 5748 5748 5746 5745 5744 5743 5742 5741 5740 5739 5738 5738 5738 5738 5738 5737 5736 5735 5734 5733
5789 5787 5786 5784 5783 5780 5776 5774 5771 5769 5767 5764 5762 5761 5759 5757 5755 5753 5752 5750 5749 5748 5747 5747 5746 5745 5743 5742 5741 5740 5739 5739 5738 5737 5737 5737 5736 5736 5735 5734 5733 5732 5731
5789 5787 5784 5782 5782 5779 5777 5774 5771 5769 5766 5764 5762 5760 5758 5757 5755 5752 5750 5748 5747 5746 5745 5744 5744 5743 5742 5740 5739 5739 5738 5737 5737 5736 5736 5735 5735 5734 5734 5733 5731 5730 5729
5790 5787 5784 5782 5780 5778 5776 5774 5771 5768 5766 5763 5761 5759 5757 5755 5753 5751 5749 5747 5746 5744 5744 5742 5741 5739 5738 5737 5736 5736 5736 5736 5735 5735 5734 5733 5733 5732 5732 5731 5729 5728 5728
5789 5785 5781 5780 5778 5777 5775 5773 5770 5767 5764 5762 5760 5758 5756 5754 5752 5750 5747 5746 5744 5743 5741 5741 5738 5736 5734 5734 5734 5734 5734 5733 5733 5732 5732 5731 5730 5730 5729 5728 5727 5726 5726
5788 5785 5781 5779 5776 5775 5773 5770 5767 5764 5762 5760 5758 5756 5754 5753 5751 5748 5746 5744 5743 5740 5738 5737 5735 5734 5733 5732 5733 5731 5731 5730 5730 5729 5729 5728 5728 5727 5726 5725 5724 5724 5723
5784 5781 5779 5776 5774 5773 5769 5765 5761 5759 5758 5756 5756 5755 5753 5751 5749 5746 5744 5742 5741 5738 5736 5735 5733 5731 5729 5729 5726 5724 5725 5727 5726 5726 5726 5725 5724 5724 5723 5723 5722 5721 5720
5780 5778 5777 5775 5773 5772 5769 5766 5763 5759 5756 5754 5753 5752 5750 5749 5747 5745 5742 5740 5738 5736 5734 5732 5731 5728 5726 5727 5722 5717 5714 5716 5719 5723 5722 5721 5720 5720 5720 5720 5720 5719 5718
5779 5777 5777 5774 5772 5770 5768 5764 5760 5756 5753 5750 5748 5748 5748 5747 5745 5742 5740 5738 5735 5733 5731 5729 5728 5726 5722 5723 5723 5717 5710 5706 5710 5715 5717 5717 5717 5716 5717 5718 5717 5716 5715
5779 5778 5776 5774 5771 5768 5765 5761 5757 5751 5747 5747 5747 5746 5745 5745 5743 5741 5738 5736 5733 5731 5729 5727 5727 5725 5722 5719 5719 5719 5716 5713 5707 5705 5709 5712 5713 5714 5714 5715 5714 5713 5713
5779 5776 5774 5771 5768 5766 5763 5759 5755 5751 5749 5747 5745 5743 5742 5741 5740 5738 5736 5733 5731 5729 5727 5725 5724 5722 5721 5718 5716 5715 5713 5711 5709 5704 5701 5704 5707 5710 5711 5712 5712 5710 5709
5776 5773 5770 5767 5764 5763 5760 5757 5754 5751 5747 5744 5742 5739 5738 5737 5736 5735 5733 5731 5729 5726 5725 5723 5722 5720 5719 5718 5715 5713 5711 5707 5705 5702 5699 5699 5701 5705 5708 5709 5708 5707 5707